Regional Weather Roundup
Issued by NWS Charleston, WV

Home | Current Version | Previous Version | Graphics & Text | Print | Product List | Glossary On
Versions: 1 2 3 4 5 6 7 8 9 10 11 12 13 14 15 16 17 18 19 20 21 22 23 24 25 26 27 28 29 30 31 32 33 34 35 36 37 38 39 40 41 42 43 44 45 46 47 48 49 50
000
ASUS41 KRLX 290110
RWRRLX
West Virginia Regional Weather Roundup
National Weather Service Charleston WV
900 PM EDT SUN MAY 28 2017

Note: "fair" indicates few or no clouds below 12,000 feet with no
significant weather and/or obstructions to visibility.

WVZ003-290200-
Northern Panhandle of West Virginia

CITY           SKY/WX    TMP DP  RH WIND       PRES   REMARKS
WHEELING       CLEAR     70  61  73 SW8       29.76S
$$

WVZ009-290200-
Northwest West Virginia

CITY           SKY/WX    TMP DP  RH WIND       PRES   REMARKS
PARKERSBURG    CLEAR     71  62  73 SW6       29.82R
$$

WVZ006-290200-
Western West Virginia

CITY           SKY/WX    TMP DP  RH WIND       PRES   REMARKS
HUNTINGTON     CLOUDY    72  63  73 SW7       29.82S
$$

WVZ015-290200-
West Central West Virginia

CITY           SKY/WX    TMP DP  RH WIND       PRES   REMARKS
CHARLESTON     PTCLDY    70  61  73 SW7       29.84R
$$

WVZ022-031-290200-
North Central West Virginia

CITY           SKY/WX    TMP DP  RH WIND       PRES   REMARKS
CLARKSBURG     PTCLDY    69  61  75 SW9       29.81R
MORGANTOWN     CLEAR     71  60  68 SW6       29.81R
$$

WVZ025-035-042-045-290200-
Southern West Virginia

CITY           SKY/WX    TMP DP  RH WIND       PRES   REMARKS
BECKLEY        MOCLDY    65  57  75 W5        29.91S
LOGAN          CLOUDY    70  61  73 CALM      29.87S
BLUEFIELD      CLOUDY    62  59  90 W5        29.93S
LEWISBURG      CLOUDY    67  57  71 NW5       29.90S
$$

WVZ047-290200-
Northern Mountains of West Virginia

CITY           SKY/WX    TMP DP  RH WIND       PRES   REMARKS
ELKINS         CLOUDY    64  59  83 S7        29.86F
$$

WVZ052-290200-
Eastern Panhandle of West Virginia

CITY           SKY/WX    TMP DP  RH WIND       PRES   REMARKS
MARTINSBURG    LGT RAIN  65  62  90 N3        29.83F
PETERSBURG     CLOUDY    67  66  97 CALM      29.83S
$$



USA.gov is the U.S. government's official web portal to all federal, state and local government web resources and services.